Consulta los datos en tiempo real de la estación municipal de Susqueda - Veïnat del Coll
| Hora UTC | 01:45 |
|---|---|
| Temperatura | 23.3 ºC |
| Humedad | 55.1 % |
| Presión | 1024.7 hPa |
| Pluja | 0.0 mm |
| Velocidad viento | 0.0 km/h |
| Dirección viento | SW |
| Radiación solar | 0.1 W/m² |
| Temperatura (ºC) | Humedad (%) | Presión (hPa) | Velocidad viento (km/h) | Precipitación (mm) | Radiación solar (W/m²) | |||||||||||||
|---|---|---|---|---|---|---|---|---|---|---|---|---|---|---|---|---|---|---|
| Hora UTC | Aire | Humedad | Presión | Vel. | Dir. | Vel. Max | Dir. | Intent. máx 5 min. | Rad. Sol. | |||||||||
| 00:05 | 24.1 | 61.1 | 1024.8 | 4.6 | SW | 4.6 | SSW | 0.0 | 0.1 | |||||||||
| 00:10 | 24.0 | 60.4 | 1024.8 | 4.5 | SW | 8.8 | SSW | 0.0 | 0.1 | |||||||||
| 00:15 | 23.9 | 59.5 | 1024.8 | 4.6 | SW | 9.2 | WSW | 0.0 | 0.1 | |||||||||
| 00:20 | 23.9 | 58.8 | 1024.8 | 4.8 | SW | 8.8 | SSW | 0.0 | 0.1 | |||||||||
| 00:25 | 24.0 | 57.6 | 1024.7 | 4.5 | SW | 9.9 | SSW | 0.0 | 0.1 | |||||||||
| 00:30 | 23.8 | 57.5 | 1024.7 | 4.3 | SW | 7.8 | W | 0.0 | 0.1 | |||||||||
| 00:35 | 23.9 | 57.0 | 1024.7 | 4.9 | SW | 9.2 | SW | 0.0 | 0.1 | |||||||||
| 00:40 | 23.8 | 56.4 | 1024.7 | 4.5 | SW | 9.5 | SW | 0.0 | 0.1 | |||||||||
| 00:45 | 23.8 | 56.1 | 1024.7 | 4.9 | SW | 8.5 | SSW | 0.0 | 0.1 | |||||||||
| 00:50 | 23.9 | 55.3 | 1024.7 | 4.1 | SW | 7.8 | SSW | 0.0 | 0.1 | |||||||||
| 00:55 | 24.0 | 55.2 | 1024.7 | 3.1 | SW | 7.1 | SSW | 0.0 | 0.1 | |||||||||
| 01:00 | 23.9 | 55.2 | 1024.7 | 2.7 | SW | 6.7 | SW | 0.0 | 0.1 | |||||||||
| 01:05 | 23.8 | 55.8 | 1024.7 | 2.1 | WSW | 6.7 | W | 0.0 | 0.1 | |||||||||
| 01:10 | 23.6 | 57.0 | 1024.7 | 1.8 | SW | 6.0 | SSW | 0.0 | 0.1 | |||||||||
| 01:15 | 23.5 | 57.7 | 1024.7 | 1.3 | SW | 3.5 | S | 0.0 | 0.1 | |||||||||
| 01:20 | 23.3 | 57.7 | 1024.7 | 1.2 | SW | 3.2 | SW | 0.0 | 0.1 | |||||||||
| 01:25 | 23.2 | 57.4 | 1024.7 | 1.9 | W | 3.9 | W | 0.0 | 0.1 | |||||||||
| 01:30 | 23.1 | 57.6 | 1024.7 | 2.4 | W | 4.6 | W | 0.0 | 0.1 | |||||||||
| 01:35 | 23.0 | 56.9 | 1024.8 | 0.5 | W | 2.5 | WNW | 0.0 | 0.1 | |||||||||
| 01:40 | 23.3 | 55.6 | 1024.8 | 0.0 | NNE | 0.0 | N | 0.0 | 0.1 | |||||||||
| 01:45 | 23.3 | 55.1 | 1024.7 | 0.0 | SW | 1.1 | WSW | 0.0 | 0.1 | |||||||||
| Máxima | 24.1 | 61.1 | 1024.8 | 4.9 | SW | 9.9 | SSW | 0.0 | 0.1 | |||||||||
| Mínima | 20 | 55.1 | 1024.7 | |||||||||||||||
| Total | 0.0 | |||||||||||||||||